ACA794 KLAX-CYYZ

Flight info

Callsign ACA794
Flight time N/A
Altitude 37000
Route DOTSS2 CLEEE DCT PKE DCT FLG J10 RSK J64 PUB DCT GLD DCT DIYAP/N0479F390 DCT JOT DCT SVM DCT QWERI NUBER6
Aircraft B789/H-SDE1E2E3FGHIJ2J3J4J5M1RWXY/LB1D1

Departure

Time 2026-05-04 11:49
Airport Los Angeles International Airport (KLAX)

Arrival

Time N/A
Airport Toronto Pearson International Airport (CYYZ)
Time Latitude Longitude Altitude Speed Heading
2026-05-04 11:16 33.94088 -118.40271 131 ft 0 kts 96°
2026-05-04 11:35 33.94089 -118.40277 131 ft 2 kts 96°
2026-05-04 11:35 33.94091 -118.40297 131 ft 2 kts 101°
2026-05-04 11:36 33.94097 -118.40315 131 ft 2 kts 149°
2026-05-04 11:36 33.94112 -118.40324 131 ft 2 kts 167°
2026-05-04 11:36 33.94128 -118.40326 125 ft 2 kts 175°
2026-05-04 11:36 33.94136 -118.40327 131 ft 0 kts 174°
2026-05-04 11:39 33.94130 -118.40326 126 ft 3 kts 173°
2026-05-04 11:39 33.94109 -118.40323 126 ft 3 kts 171°
2026-05-04 11:40 33.93865 -118.40265 127 ft 8 kts 132°
2026-05-04 11:41 33.93858 -118.40205 126 ft 7 kts 84°
2026-05-04 11:41 33.93865 -118.40130 127 ft 10 kts 83°
2026-05-04 11:41 33.93875 -118.40041 129 ft 11 kts 83°
2026-05-04 11:41 33.93884 -118.39950 126 ft 11 kts 83°
2026-05-04 11:42 33.93893 -118.39858 131 ft 11 kts 83°
2026-05-04 11:42 33.93903 -118.39767 131 ft 11 kts 83°
2026-05-04 11:42 33.93911 -118.39676 126 ft 11 kts 83°
2026-05-04 11:42 33.93920 -118.39584 129 ft 11 kts 83°
2026-05-04 11:43 33.93930 -118.39490 131 ft 11 kts 82°
2026-05-04 11:43 33.93940 -118.39394 126 ft 12 kts 83°
2026-05-04 11:43 33.93950 -118.39296 131 ft 12 kts 83°
2026-05-04 11:43 33.93961 -118.39197 129 ft 12 kts 83°
2026-05-04 11:44 33.93971 -118.39095 128 ft 12 kts 83°
2026-05-04 11:44 33.93981 -118.38991 129 ft 13 kts 83°
2026-05-04 11:44 33.93992 -118.38886 131 ft 13 kts 83°
2026-05-04 11:44 33.94003 -118.38780 131 ft 13 kts 83°
2026-05-04 11:45 33.94014 -118.38671 127 ft 13 kts 83°
2026-05-04 11:45 33.94025 -118.38562 129 ft 13 kts 83°
2026-05-04 11:45 33.94036 -118.38451 126 ft 13 kts 83°
2026-05-04 11:45 33.94048 -118.38340 129 ft 13 kts 83°
2026-05-04 11:46 33.94059 -118.38228 131 ft 13 kts 83°
2026-05-04 11:46 33.94071 -118.38116 129 ft 13 kts 83°
2026-05-04 11:46 33.94075 -118.38073 131 ft 0 kts 83°
2026-05-04 11:47 33.94077 -118.38047 127 ft 5 kts 93°
2026-05-04 11:47 33.94065 -118.38016 131 ft 4 kts 129°
2026-05-04 11:47 33.94040 -118.38000 125 ft 4 kts 165°
2026-05-04 11:48 33.94009 -118.37996 131 ft 5 kts 174°
2026-05-04 11:48 33.93993 -118.38003 125 ft 1 kts 220°
2026-05-04 11:48 33.93988 -118.38017 126 ft 2 kts 249°
2026-05-04 11:48 33.93983 -118.38053 126 ft 11 kts 261°
2026-05-04 11:49 33.93950 -118.38371 128 ft 70 kts 263°
2026-05-04 11:49 33.93863 -118.39217 128 ft 132 kts 262°
2026-05-04 11:49 33.93727 -118.40530 154 ft 181 kts 264°
2026-05-04 11:49 33.93588 -118.42082 844 ft 186 kts 265°
2026-05-04 11:50 33.93480 -118.43127 1387 ft 196 kts 263°
2026-05-04 11:50 33.93279 -118.44800 2190 ft 206 kts 261°
2026-05-04 11:50 33.92868 -118.46571 2535 ft 230 kts 239°
2026-05-04 11:50 33.91867 -118.48092 3351 ft 236 kts 229°
2026-05-04 11:51 33.90761 -118.49553 4190 ft 240 kts 227°
2026-05-04 11:51 33.89587 -118.51112 4786 ft 257 kts 230°
2026-05-04 11:51 33.88438 -118.52763 5833 ft 257 kts 230°
2026-05-04 11:51 33.87263 -118.54445 6596 ft 267 kts 228°
2026-05-04 11:52 33.85742 -118.55637 7647 ft 265 kts 201°
2026-05-04 11:52 33.83864 -118.55974 8168 ft 285 kts 172°
2026-05-04 11:52 33.81981 -118.55415 9309 ft 279 kts 167°
2026-05-04 11:52 33.80047 -118.54844 9995 ft 287 kts 169°
2026-05-04 11:53 33.78057 -118.54325 10582 ft 304 kts 171°
2026-05-04 11:53 33.75928 -118.53771 10824 ft 330 kts 171°
2026-05-04 11:53 33.73593 -118.53134 11384 ft 343 kts 169°
2026-05-04 11:53 33.71415 -118.52021 12268 ft 353 kts 151°
2026-05-04 11:55 33.64447 -118.31265 17146 ft 426 kts 95°
2026-05-04 11:55 33.64427 -118.27685 17768 ft 432 kts 94°
2026-05-04 11:56 33.64463 -118.24054 18377 ft 438 kts 94°
2026-05-04 11:56 33.64483 -118.20378 18950 ft 444 kts 95°
2026-05-04 11:56 33.64470 -118.16654 19560 ft 448 kts 95°
2026-05-04 11:56 33.64457 -118.12892 20116 ft 454 kts 95°
2026-05-04 11:57 33.64461 -118.09086 20688 ft 458 kts 95°
2026-05-04 11:57 33.64465 -118.05238 21192 ft 464 kts 95°
2026-05-04 11:57 33.64459 -118.01354 21728 ft 468 kts 96°
2026-05-04 11:57 33.64449 -117.97482 22224 ft 472 kts 96°
2026-05-04 11:58 33.64441 -117.93470 22691 ft 477 kts 96°
2026-05-04 11:58 33.64436 -117.89474 23155 ft 481 kts 96°
2026-05-04 11:58 33.64428 -117.85486 23588 ft 486 kts 97°
2026-05-04 11:58 33.64421 -117.81418 24013 ft 490 kts 94°
2026-05-04 11:59 33.64842 -117.77297 24411 ft 503 kts 82°
2026-05-04 11:59 33.65607 -117.73166 24779 ft 510 kts 81°
2026-05-04 11:59 33.66433 -117.69017 25237 ft 513 kts 81°
2026-05-04 11:59 33.67264 -117.64829 25599 ft 517 kts 81°
2026-05-04 12:00 33.68063 -117.60603 25968 ft 521 kts 81°
2026-05-04 12:00 33.68864 -117.56339 26377 ft 525 kts 81°
2026-05-04 12:00 33.69690 -117.52042 26752 ft 530 kts 81°
2026-05-04 12:00 33.70526 -117.47722 27127 ft 533 kts 81°
2026-05-04 12:01 33.71355 -117.43363 27446 ft 536 kts 81°
2026-05-04 12:01 33.72181 -117.38973 27700 ft 541 kts 81°
2026-05-04 12:02 33.74911 -117.12032 29491 ft 548 kts 98°
2026-05-04 12:03 33.74807 -117.07376 29756 ft 553 kts 97°
2026-05-04 12:03 33.74717 -117.02744 30039 ft 556 kts 97°
2026-05-04 12:03 33.74628 -116.98153 30283 ft 558 kts 97°
2026-05-04 12:03 33.74524 -116.93475 30547 ft 561 kts 97°
2026-05-04 12:04 33.74413 -116.88769 30746 ft 565 kts 97°
2026-05-04 12:04 33.74308 -116.84043 31034 ft 567 kts 97°
2026-05-04 12:04 33.74205 -116.79295 31268 ft 570 kts 97°
2026-05-04 12:04 33.74095 -116.74524 31515 ft 573 kts 97°
2026-05-04 12:05 33.73978 -116.69725 31722 ft 576 kts 97°
2026-05-04 12:05 33.73864 -116.64962 32004 ft 577 kts 97°
2026-05-04 12:05 33.73747 -116.60084 32127 ft 580 kts 97°
2026-05-04 12:05 33.73627 -116.55287 32240 ft 583 kts 97°
2026-05-04 12:06 33.73503 -116.50409 32500 ft 584 kts 97°
2026-05-04 12:06 33.73381 -116.45521 32659 ft 587 kts 97°
2026-05-04 12:06 33.73253 -116.40613 32859 ft 588 kts 97°
2026-05-04 12:06 33.73123 -116.35694 33050 ft 590 kts 97°
2026-05-04 12:07 33.72991 -116.30760 33232 ft 592 kts 97°
2026-05-04 12:07 33.72858 -116.25808 33392 ft 594 kts 97°
2026-05-04 12:07 33.72721 -116.20846 33621 ft 594 kts 97°
2026-05-04 12:07 33.72583 -116.15885 33902 ft 594 kts 96°
2026-05-04 12:08 33.72489 -116.10903 34107 ft 597 kts 90°
2026-05-04 12:08 33.72960 -116.05929 34379 ft 601 kts 79°
2026-05-04 12:08 33.74061 -116.01154 34624 ft 601 kts 72°
2026-05-04 12:08 33.75374 -115.96377 34806 ft 603 kts 72°
2026-05-04 12:09 33.76715 -115.91591 35045 ft 602 kts 71°
2026-05-04 12:09 33.78053 -115.86815 35303 ft 601 kts 72°
2026-05-04 12:09 33.79370 -115.82036 35537 ft 601 kts 72°
2026-05-04 12:09 33.80678 -115.77262 35763 ft 601 kts 72°
2026-05-04 12:10 33.81998 -115.72481 35938 ft 601 kts 71°
2026-05-04 12:10 33.83317 -115.67718 36152 ft 601 kts 72°
2026-05-04 12:10 33.84609 -115.63015 36341 ft 601 kts 72°
2026-05-04 12:10 33.85915 -115.58234 36529 ft 601 kts 72°
2026-05-04 12:11 33.87221 -115.53465 36718 ft 600 kts 71°
2026-05-04 12:11 33.88529 -115.48696 36910 ft 600 kts 72°
2026-05-04 12:11 33.91142 -115.39108 36912 ft 601 kts 72°
2026-05-04 12:12 33.93728 -115.29596 36911 ft 594 kts 72°
2026-05-04 12:12 33.96289 -115.20141 36892 ft 594 kts 72°
2026-05-04 12:14 34.06497 -114.82124 36900 ft 598 kts 72°
2026-05-04 12:15 34.09040 -114.72570 36896 ft 597 kts 71°
2026-05-04 12:15 34.11990 -114.63236 36888 ft 595 kts 64°
2026-05-04 12:16 34.15341 -114.54091 36875 ft 596 kts 64°
2026-05-04 12:16 34.18644 -114.44915 36866 ft 595 kts 64°
2026-05-04 12:17 34.21962 -114.35760 36865 ft 593 kts 64°
2026-05-04 12:17 34.25253 -114.26603 36866 ft 594 kts 64°
2026-05-04 12:18 34.28524 -114.17500 36866 ft 593 kts 64°
2026-05-04 12:18 34.31800 -114.08350 36867 ft 593 kts 64°
2026-05-04 12:19 34.35075 -113.99179 36867 ft 593 kts 64°
2026-05-04 12:19 34.38342 -113.90001 36871 ft 594 kts 64°
2026-05-04 12:20 34.41603 -113.80810 36873 ft 594 kts 64°
2026-05-04 12:20 34.44860 -113.71607 36884 ft 593 kts 64°
2026-05-04 12:21 34.48102 -113.62423 36892 ft 592 kts 64°
2026-05-04 12:21 34.51337 -113.53230 36901 ft 593 kts 64°
2026-05-04 12:22 34.54545 -113.44084 36966 ft 593 kts 64°
2026-05-04 12:22 34.57770 -113.34869 36962 ft 593 kts 64°
2026-05-04 12:23 34.60988 -113.25642 36948 ft 594 kts 64°
2026-05-04 12:23 34.64195 -113.16421 36952 ft 593 kts 64°
2026-05-04 12:24 34.67398 -113.07187 36970 ft 592 kts 64°
2026-05-04 12:24 34.70586 -112.97965 36984 ft 591 kts 64°
2026-05-04 12:25 34.73770 -112.88731 36997 ft 591 kts 64°
2026-05-04 12:25 34.76918 -112.79574 37014 ft 590 kts 64°
2026-05-04 12:26 34.80072 -112.70366 37025 ft 589 kts 64°
2026-05-04 12:26 34.83225 -112.61145 37027 ft 590 kts 64°
2026-05-04 12:27 34.86366 -112.51922 37025 ft 589 kts 64°
2026-05-04 12:27 34.89493 -112.42717 37032 ft 588 kts 64°
2026-05-04 12:28 34.92616 -112.33493 37030 ft 588 kts 64°
2026-05-04 12:28 34.95735 -112.24256 37039 ft 590 kts 64°
2026-05-04 12:29 34.98833 -112.15055 37040 ft 591 kts 64°
2026-05-04 12:29 35.01950 -112.05768 37046 ft 591 kts 64°
2026-05-04 12:30 35.05057 -111.96484 37042 ft 591 kts 64°
2026-05-04 12:30 35.08143 -111.87226 37063 ft 587 kts 64°
2026-05-04 12:31 35.11220 -111.77984 37072 ft 589 kts 64°
2026-05-04 12:31 35.14304 -111.68699 37098 ft 589 kts 62°
2026-05-04 12:32 35.20238 -111.55716 37100 ft 583 kts 54°
2026-05-04 12:33 35.24246 -111.47173 37104 ft 582 kts 54°
2026-05-04 12:33 35.28277 -111.38575 37083 ft 582 kts 54°
2026-05-04 12:34 35.32296 -111.29976 37084 ft 582 kts 54°
2026-05-04 12:34 35.36312 -111.21365 37084 ft 582 kts 54°
2026-05-04 12:35 35.40319 -111.12746 37101 ft 581 kts 54°
2026-05-04 12:35 35.44316 -111.04132 37085 ft 580 kts 54°
2026-05-04 12:36 35.48301 -110.95519 37082 ft 580 kts 55°
2026-05-04 12:36 35.51608 -110.88356 37081 ft 580 kts 54°
2026-05-04 12:37 35.55581 -110.79732 37082 ft 580 kts 55°
2026-05-04 12:37 35.60187 -110.69701 37083 ft 580 kts 54°
2026-05-04 12:38 35.63502 -110.62470 37082 ft 580 kts 54°
2026-05-04 12:38 35.67458 -110.53811 37070 ft 581 kts 54°
2026-05-04 12:39 35.71389 -110.45190 37063 ft 581 kts 55°
2026-05-04 12:39 35.75338 -110.36506 37062 ft 581 kts 54°
2026-05-04 12:40 35.79272 -110.27832 37064 ft 579 kts 54°
2026-05-04 12:40 35.83192 -110.19173 37063 ft 580 kts 54°
2026-05-04 12:41 35.87118 -110.10472 37071 ft 581 kts 55°
2026-05-04 12:41 35.91050 -110.01735 37075 ft 582 kts 55°
2026-05-04 12:42 35.94941 -109.93067 37077 ft 581 kts 55°
2026-05-04 12:42 35.98851 -109.84333 37079 ft 581 kts 55°
2026-05-04 12:43 36.02760 -109.75587 37081 ft 581 kts 55°
2026-05-04 12:43 36.06667 -109.66808 37081 ft 582 kts 55°
2026-05-04 12:44 36.10570 -109.58029 37083 ft 583 kts 55°
2026-05-04 12:44 36.14434 -109.49301 37080 ft 582 kts 55°
2026-05-04 12:45 36.18319 -109.40516 37094 ft 582 kts 55°
2026-05-04 12:45 36.22198 -109.31710 37098 ft 581 kts 55°
2026-05-04 12:46 36.26061 -109.22926 37079 ft 581 kts 55°
2026-05-04 12:46 36.29917 -109.14127 37078 ft 580 kts 55°
2026-05-04 12:47 36.33764 -109.05333 37077 ft 580 kts 55°
2026-05-04 12:47 36.37601 -108.96533 37077 ft 580 kts 55°
2026-05-04 12:48 36.41429 -108.87728 37078 ft 579 kts 55°
2026-05-04 12:48 36.45228 -108.78975 37069 ft 580 kts 55°
2026-05-04 12:49 36.49056 -108.70126 37064 ft 581 kts 55°
2026-05-04 12:49 36.52872 -108.61278 37052 ft 580 kts 54°
2026-05-04 12:50 36.56678 -108.52437 37040 ft 579 kts 55°
2026-05-04 12:50 36.60483 -108.43567 37036 ft 579 kts 55°
2026-05-04 12:51 36.64250 -108.34765 37029 ft 580 kts 55°
2026-05-04 12:51 36.68061 -108.25836 37030 ft 580 kts 55°
2026-05-04 12:52 36.71817 -108.17013 37029 ft 580 kts 55°
2026-05-04 12:52 36.75630 -108.08150 37047 ft 576 kts 52°
2026-05-04 12:53 36.79522 -107.99360 37029 ft 579 kts 54°
2026-05-04 12:53 36.83420 -107.90579 37032 ft 575 kts 53°
2026-05-04 12:54 36.87288 -107.81855 37043 ft 575 kts 54°
2026-05-04 12:54 36.91139 -107.73110 37055 ft 574 kts 53°
2026-05-04 12:55 36.94992 -107.64372 37060 ft 574 kts 54°
2026-05-04 12:55 36.98838 -107.55597 37067 ft 575 kts 53°
2026-05-04 12:56 37.02664 -107.46866 37069 ft 576 kts 54°
2026-05-04 12:56 37.06494 -107.38086 37082 ft 574 kts 54°
2026-05-04 12:57 37.10320 -107.29307 37096 ft 573 kts 54°
2026-05-04 12:57 37.14126 -107.20537 37114 ft 572 kts 54°
2026-05-04 12:58 37.17922 -107.11775 37126 ft 571 kts 54°
2026-05-04 12:58 37.21706 -107.03014 37134 ft 571 kts 54°
2026-05-04 12:59 37.25485 -106.94241 37145 ft 571 kts 54°
2026-05-04 12:59 37.29226 -106.85532 37172 ft 570 kts 54°
2026-05-04 13:00 37.32983 -106.76763 37225 ft 570 kts 54°
2026-05-04 13:00 37.36733 -106.67987 37236 ft 570 kts 54°
2026-05-04 13:01 37.40473 -106.59206 37248 ft 569 kts 54°
2026-05-04 13:01 37.44201 -106.50435 37219 ft 568 kts 54°
2026-05-04 13:02 37.47921 -106.41657 37178 ft 568 kts 54°
2026-05-04 13:02 37.51611 -106.32927 37162 ft 569 kts 55°
2026-05-04 13:03 37.55319 -106.24123 37154 ft 568 kts 55°
2026-05-04 13:03 37.59031 -106.15297 37146 ft 569 kts 55°
2026-05-04 13:04 37.62720 -106.06490 37133 ft 567 kts 55°
2026-05-04 13:04 37.66397 -105.97696 37125 ft 567 kts 55°
2026-05-04 13:05 37.70062 -105.88902 37127 ft 565 kts 55°
2026-05-04 13:05 37.73720 -105.80105 37125 ft 566 kts 55°
2026-05-04 13:06 37.77352 -105.71341 37126 ft 566 kts 55°
2026-05-04 13:06 37.81002 -105.62509 37130 ft 566 kts 55°
2026-05-04 13:07 37.84652 -105.53659 37129 ft 568 kts 55°
2026-05-04 13:07 37.88290 -105.44801 37119 ft 567 kts 55°
2026-05-04 13:08 37.91921 -105.35944 37114 ft 565 kts 55°
2026-05-04 13:08 37.95543 -105.27087 37111 ft 565 kts 55°
2026-05-04 13:09 37.99150 -105.18233 37114 ft 565 kts 55°
2026-05-04 13:09 38.02731 -105.09427 37082 ft 563 kts 56°
2026-05-04 13:10 38.06285 -105.00647 37023 ft 556 kts 56°
2026-05-04 13:10 38.09818 -104.91919 37004 ft 555 kts 56°
2026-05-04 13:11 38.13333 -104.83190 36972 ft 555 kts 56°
2026-05-04 13:11 38.16843 -104.74462 36947 ft 554 kts 56°
2026-05-04 13:12 38.20334 -104.65745 36907 ft 553 kts 56°
2026-05-04 13:12 38.23807 -104.57063 36900 ft 555 kts 56°
2026-05-04 13:13 38.27288 -104.48321 36893 ft 553 kts 56°
2026-05-04 13:13 38.30836 -104.39645 36895 ft 551 kts 54°
2026-05-04 13:14 38.34408 -104.30958 36900 ft 555 kts 55°
2026-05-04 13:14 38.38038 -104.22268 36902 ft 555 kts 54°
2026-05-04 13:15 38.41637 -104.13556 36905 ft 555 kts 55°
2026-05-04 13:15 38.45235 -104.04848 36903 ft 554 kts 54°
2026-05-04 13:16 38.48822 -103.96145 36920 ft 553 kts 54°
2026-05-04 13:16 38.52359 -103.87522 36900 ft 550 kts 54°
2026-05-04 13:17 38.55905 -103.78876 36912 ft 548 kts 55°
2026-05-04 13:17 38.59433 -103.70231 36904 ft 548 kts 55°
2026-05-04 13:18 38.62957 -103.61584 36900 ft 548 kts 55°
2026-05-04 13:18 38.66466 -103.52940 36894 ft 546 kts 55°
2026-05-04 13:19 38.69967 -103.44298 36894 ft 545 kts 55°
2026-05-04 13:19 38.73439 -103.35701 36894 ft 543 kts 56°
2026-05-04 13:20 38.76898 -103.27116 36893 ft 542 kts 56°
2026-05-04 13:20 38.80345 -103.18531 36891 ft 541 kts 56°
2026-05-04 13:21 38.83767 -103.09991 36884 ft 541 kts 56°
2026-05-04 13:21 38.87197 -103.01397 36883 ft 540 kts 56°
2026-05-04 13:22 38.90620 -102.92809 36886 ft 539 kts 56°
2026-05-04 13:22 38.94023 -102.84238 36880 ft 537 kts 56°
2026-05-04 13:23 38.97393 -102.75738 36876 ft 537 kts 56°
2026-05-04 13:23 39.00780 -102.67155 36881 ft 538 kts 56°
2026-05-04 13:24 39.04158 -102.58581 36866 ft 536 kts 57°
2026-05-04 13:24 39.06953 -102.51466 36857 ft 535 kts 57°
2026-05-04 13:25 39.11965 -102.38669 36855 ft 533 kts 57°
2026-05-04 13:25 39.15832 -102.28756 36855 ft 532 kts 57°
2026-05-04 13:26 39.18604 -102.21629 36855 ft 530 kts 57°
2026-05-04 13:26 39.21896 -102.13147 36855 ft 528 kts 57°
2026-05-04 13:27 39.25149 -102.04739 36846 ft 527 kts 58°
2026-05-04 13:27 39.28415 -101.96273 36834 ft 525 kts 58°
2026-05-04 13:28 39.31659 -101.87843 36831 ft 524 kts 58°
2026-05-04 13:28 39.34895 -101.79409 36817 ft 523 kts 58°
2026-05-04 13:29 39.38119 -101.70981 36813 ft 523 kts 59°
2026-05-04 13:29 39.40522 -101.62022 36822 ft 531 kts 69°
2026-05-04 13:30 39.42699 -101.52868 36814 ft 532 kts 69°
2026-05-04 13:30 39.44867 -101.43781 36827 ft 532 kts 69°
2026-05-04 13:31 39.47035 -101.34617 36833 ft 532 kts 69°
2026-05-04 13:31 39.49200 -101.25458 36832 ft 532 kts 69°
2026-05-04 13:32 39.51349 -101.16312 36834 ft 531 kts 69°
2026-05-04 13:32 39.53494 -101.07161 36830 ft 530 kts 69°
2026-05-04 13:33 39.55624 -100.98025 36831 ft 530 kts 69°
2026-05-04 13:33 39.57757 -100.88852 36835 ft 531 kts 69°
2026-05-04 13:34 39.59877 -100.79686 36838 ft 531 kts 69°
2026-05-04 13:34 39.61979 -100.70570 36816 ft 530 kts 69°
2026-05-04 13:35 39.65128 -100.56838 36816 ft 528 kts 69°
2026-05-04 13:36 39.67210 -100.47712 36800 ft 527 kts 69°
2026-05-04 13:36 39.69282 -100.38601 36798 ft 525 kts 70°
2026-05-04 13:37 39.71344 -100.29495 36804 ft 525 kts 70°
2026-05-04 13:37 39.73393 -100.20404 36800 ft 524 kts 70°
2026-05-04 13:38 39.75433 -100.11317 36792 ft 523 kts 70°
2026-05-04 13:38 39.77452 -100.02292 36794 ft 523 kts 70°
2026-05-04 13:39 39.79477 -99.93199 36794 ft 522 kts 70°
2026-05-04 13:39 39.81492 -99.84115 36795 ft 523 kts 70°
2026-05-04 13:40 39.83499 -99.75030 36796 ft 523 kts 70°
2026-05-04 13:40 39.85504 -99.65916 36794 ft 523 kts 70°
2026-05-04 13:41 39.87503 -99.56792 36795 ft 525 kts 70°
2026-05-04 13:41 39.89489 -99.47683 36795 ft 526 kts 71°
2026-05-04 13:42 39.92469 -99.33960 36780 ft 523 kts 70°
2026-05-04 13:42 39.94443 -99.24820 36778 ft 524 kts 71°
2026-05-04 13:43 39.96409 -99.15670 36779 ft 525 kts 71°
2026-05-04 13:43 39.98373 -99.06494 36782 ft 525 kts 71°
2026-05-04 13:44 40.00329 -98.97320 36780 ft 524 kts 71°
2026-05-04 13:44 40.02264 -98.88198 36782 ft 517 kts 71°
2026-05-04 13:45 40.04173 -98.79169 36774 ft 516 kts 71°
2026-05-04 13:45 40.06081 -98.70111 36776 ft 519 kts 71°
2026-05-04 13:46 40.07976 -98.61063 36776 ft 520 kts 71°
2026-05-04 13:46 40.09878 -98.51945 36775 ft 519 kts 72°
2026-05-04 13:47 40.11766 -98.42864 36774 ft 518 kts 72°
2026-05-04 13:47 40.13646 -98.33773 36759 ft 517 kts 72°
2026-05-04 13:48 40.15505 -98.24752 36756 ft 517 kts 72°
2026-05-04 13:48 40.17369 -98.15663 36758 ft 519 kts 72°
2026-05-04 13:49 40.19235 -98.06520 36764 ft 520 kts 72°
2026-05-04 13:49 40.21092 -97.97392 36753 ft 520 kts 72°
2026-05-04 13:50 40.22940 -97.88258 36752 ft 518 kts 72°
2026-05-04 13:50 40.24778 -97.79136 36746 ft 517 kts 72°
2026-05-04 13:51 40.26604 -97.70034 36743 ft 517 kts 72°